Wind_Speed
14 11 8 7 7 5 6 4 1 4 5 7 7 5 6 9 12 11 12 11 10 10
15 13 10 11 8 8 7 3 2 3 5 6 6 6 9 11 13 13 14 14 13 11
16 14 12 11 11 10 7 2 3 4 6 7 8 10 12 13 14 15 16 17 15 11
17 16 16 14 14 10 6 2 3 6 7 8 9 11 13 14 15 16 17 16 12 11
16 18 17 18 15 9 7 4 5 6 7 9 11 12 12 13 16 17 15 12 12 12
19 19 19 18 14 10 7 6 8 7 8 10 11 11 12 14 13 11 13 14 16 17
18 18 21 18 14 10 9 9 8 7 9 11 12 11 9 9 10 11 14 15 16 17
14 17 19 16 14 10 10 9 7 8 10 11 9 8 8 9 11 11 11 11 11 13
21 19 19 19 15 11 10 8 7 8 8 7 7 8 8 8 8 9 10 12 14 16
27 22 23 18 14 11 8 6 6 6 5 6 7 7 8 10 12 14 16 16 16 17
25 22 21 18 13 11 8 5 3 3 3 3 6 10 13 14 13 14 15 16 17 18
26 24 18 15 13 9 7 5 3 0 3 8 11 11 11 11 12 13 15 17 20 21
25 21 18 14 11 9 8 5 3 5 10 10 10 9 8 9 11 12 13 14 16 19
23 20 13 12 9 8 8 7 6 9 10 9 7 6 7 9 10 11 12 15 17 20
Wind_Direction
213 220 218 191 182 186 169 157 41 18 14 18 14 11 357 357 357 358 359 353 343 338
216 217 206 183 181 166 162 149 46 16 357 352 354 337 332 335 343 347 347 347 341 335
208 204 191 188 184 176 171 183 346 338 335 329 331 325 321 324 329 333 336 338 338 333
204 197 192 190 181 176 183 228 312 313 313 316 318 319 314 316 322 328 331 338 346 344
199 196 193 183 183 188 208 252 303 306 305 310 316 317 316 315 320 327 336 345 347 344
199 192 191 187 193 202 229 272 290 296 305 312 315 317 316 314 323 337 337 337 336 331
209 190 188 193 202 216 246 280 293 301 308 317 317 321 327 327 331 332 331 332 333 332
201 194 196 205 213 223 255 268 287 301 316 323 331 331 336 338 334 341 348 353 354 354
172 200 208 215 220 230 252 254 281 303 318 328 331 338 343 358 6 17 26 32 31 32
183 201 208 213 218 239 239 256 293 314 325 336 347 10 36 53 60 62 58 54 51 48
198 204 205 222 221 242 236 251 299 320 344 19 73 83 82 76 67 58 52 46 42 39
200 201 219 222 231 231 236 248 253 244 93 113 103 92 82 74 64 55 51 46 42 38
195 200 210 232 230 221 220 212 178 143 133 124 109 95 76 64 60 52 49 42 34 30
200 205 222 224 212 221 214 188 163 158 148 138 126 102 71 59 59 47 39 31 22 17
Height
1539 1542 1544 1545 1546 1547 1547 1548 1548 1547 1546 1545 1543 1542 1541 1539 1538 1536 1533 1530 1528 1526
1538 1541 1543 1544 1546 1546 1548 1547 1546 1546 1545 1544 1543 1542 1540 1539 1537 1535 1533 1530 1527 1525
1535 1539 1541 1543 1544 1545 1546 1547 1546 1545 1544 1543 1542 1541 1540 1538 1536 1534 1532 1529 1526 1524
1534 1536 1538 1542 1544 1545 1546 1545 1545 1544 1543 1542 1541 1540 1539 1537 1535 1533 1530 1527 1525 1522
1530 1534 1537 1540 1543 1544 1544 1544 1544 1542 1541 1541 1540 1538 1537 1536 1534 1532 1530 1527 1524 1522
1528 1532 1536 1539 1541 1540 1542 1543 1542 1541 1540 1539 1537 1535 1534 1533 1531 1530 1528 1526 1523 1521
1531 1531 1536 1538 1539 1540 1540 1541 1540 1540 1540 1538 1536 1533 1531 1531 1529 1527 1525 1523 1522 1520
1526 1534 1536 1539 1538 1537 1538 1537 1538 1538 1538 1536 1535 1533 1531 1530 1529 1526 1524 1521 1519 1518
1522 1528 1532 1536 1535 1534 1535 1535 1535 1535 1535 1534 1533 1532 1529 1527 1526 1525 1523 1520 1518 1517
1522 1528 1531 1531 1532 1532 1533 1534 1534 1534 1534 1534 1532 1532 1529 1527 1528 1526 1524 1522 1520 1518
1521 1526 1528 1530 1530 1532 1533 1532 1532 1534 1533 1532 1532 1531 1529 1528 1529 1528 1526 1525 1522 1520
1515 1522 1525 1527 1530 1531 1531 1530 1531 1531 1531 1533 1532 1531 1530 1529 1529 1528 1526 1525 1522 1519
1515 1518 1522 1526 1528 1529 1530 1529 1531 1530 1531 1533 1532 1532 1531 1530 1529 1528 1526 1525 1523 1520
1516 1518 1521 1524 1525 1527 1529 1529 1528 1532 1533 1532 1531 1531 1531 1530 1531 1531 1530 1528 1525 1521